This is the latest recevied weather packets stored in our database for station/object WX7EM. If no packets are shown the sender has not sent any weather packets the latest 10 day(s).
| Time | Temp. | Humidity | Pressure | Rain* | Wind** | Luminosity | Snow |
|---|---|---|---|---|---|---|---|
| 1777734156 | 10.56° C | 87% | 1015.1 hPa | 0 mm | - | 55 W/m² | - |
| 1777733852 | 10.56° C | 88% | 1015.1 hPa | 0 mm | - | 64 W/m² | - |
| 1777733548 | 10.56° C | 89% | 1015.1 hPa | 0 mm | - | 61 W/m² | - |
| 1777733245 | 10.56° C | 89% | 1015.3 hPa | 0 mm | - | 60 W/m² | - |
| 1777732942 | 10.56° C | 89% | 1015.3 hPa | 0 mm | - | 59 W/m² | - |
| 1777732638 | 10.56° C | 90% | 1015.4 hPa | 0 mm | - | 45 W/m² | - |
| 1777732336 | 10.56° C | 90% | 1015.1 hPa | 0 mm | - | 41 W/m² | - |
| 1777732033 | 10° C | 90% | 1015.3 hPa | 0 mm | - | 33 W/m² | - |
| 1777731729 | 10° C | 89% | 1015.4 hPa | 0 mm | - | 26 W/m² | - |
| 1777731427 | 10.56° C | 89% | 1015.1 hPa | 0 mm | - | 24 W/m² | - |
| 1777731125 | 10.56° C | 88% | 1015.3 hPa | 0 mm | - | 23 W/m² | - |
| 1777730519 | 10.56° C | 88% | 1015.4 hPa | 0 mm | - | 18 W/m² | - |
| 1777730215 | 10.56° C | 87% | 1015 hPa | 0 mm | - | 17 W/m² | - |
| 1777729912 | 10.56° C | 88% | 1015 hPa | 0 mm | - | 14 W/m² | - |
| 1777729608 | 10.56° C | 88% | 1015.3 hPa | 0 mm | - | 12 W/m² | - |
| 1777729305 | 10.56° C | 88% | 1015 hPa | 0 mm | - | 13 W/m² | - |
| 1777729002 | 10.56° C | 89% | 1015.1 hPa | 0 mm | - | 11 W/m² | - |
| 1777728699 | 10.56° C | 89% | 1014.8 hPa | 0 mm | - | 9 W/m² | - |
| 1777728395 | 10.56° C | 90% | 1014.8 hPa | 0 mm | - | 6 W/m² | - |
| 1777728093 | 10.56° C | 90% | 1015 hPa | 0 mm | - | 6 W/m² | - |
| 1777727790 | 10.56° C | 90% | 1015.1 hPa | 0 mm | - | 4 W/m² | - |
| 1777727487 | 10.56° C | 90% | 1015 hPa | 0 mm | - | 3 W/m² | - |
| 1777727184 | 10.56° C | 90% | 1014.9 hPa | 0 mm | - | 2 W/m² | - |
| 1777726882 | 10.56° C | 90% | 1015 hPa | 0 mm | - | 1 W/m² | - |
| 1777726578 | 10.56° C | 90% | 1015 hPa | 0 mm | - | 1 W/m² | - |
* Rain latest hour (hover to see other rain measurements)
** Current wind speed in m/s (hover to see current wind gust speed)